Location: Newark
(48.9886°N, 1.2358°E)
Time: 02:06:44
(UTC+00:00)

Envisat - Visible Passes

Search period start: 21 October 2019 00:00
Search period end: 31 October 2019 00:00
Orbit: 764 x 766 km, 98.1° (Epoch: 20 October)

Date Brightness Start Highest point End Pass type
(mag) Time Alt. Az. Time Alt. Az. Time Alt. Az.
21 Oct 6.1 05:38:25 10° NE 05:41:41 17° E 05:44:55 10° SE visible
21 Oct 4.5 18:35:12 10° SSW 18:39:55 38° W 18:44:41 10° NNW visible
22 Oct 3.2 17:57:56 10° S 18:03:01 78° WSW 18:08:08 10° NNW visible
22 Oct 6.2 19:41:16 10° WSW 19:42:54 11° W 19:44:32 10° WNW visible
23 Oct 3.1 17:21:23 10° SE 17:26:18 53° ENE 17:31:16 10° N visible
23 Oct 5.4 19:01:36 10° SW 19:05:39 24° W 19:09:43 10° NW visible
24 Oct 6.3 05:27:46 10° ENE 05:30:15 14° E 05:32:44 10° ESE visible
24 Oct 4.1 18:23:43 10° S 18:28:36 47° W 18:33:31 10° NNW visible
25 Oct 3.0 17:46:40 10° SSE 17:51:45 86° ENE 17:56:52 10° NNW visible
25 Oct 6.0 19:28:45 10° WSW 19:31:28 14° W 19:34:12 10° NW visible
26 Oct 5.9 05:52:08 10° NE 05:56:06 22° E 06:00:02 10° SE visible
26 Oct 3.3 17:10:19 10° SE 17:15:06 43° ENE 17:19:54 10° N visible
26 Oct 5.0 18:49:53 10° SSW 18:54:16 29° W 18:58:41 10° NNW visible
27 Oct 6.6 05:17:42 10° ENE 05:18:49 11° E 05:19:56 10° E visible
27 Oct 3.6 18:12:17 10° S 18:17:17 58° W 18:22:20 10° NNW visible
28 Oct 2.9 17:35:27 10° SSE 17:40:30 70° ENE 17:45:35 10° N visible
28 Oct 5.8 19:16:39 10° SW 19:20:03 18° W 19:23:28 10° NW visible
29 Oct 6.0 05:41:13 10° NE 05:44:42 18° E 05:48:10 10° SE visible
29 Oct 4.6 18:38:17 10° SSW 18:42:55 35° W 18:47:36 10° NNW visible
30 Oct 3.3 18:00:56 10° S 18:05:59 72° WSW 18:11:06 10° NNW visible
30 Oct 6.3 19:45:08 10° W 19:45:56 10° W 19:46:45 10° WNW visible
